Location: Kur�w
(53.3641°N, 14.5053°E)
Time: 13:48:32
(UTC+00:00)

Daily predictions for brighter satellites

Satellite Brightness Start Highest point End
(mag) Time Altitude Azimuth Time Altitude Azimuth Time Altitude Azimuth
Cosmos 1470 Rocket 3.9 19:25:28 10° N 19:29:53 55° ENE 19:34:18 10° SSE
Cosmos 1328 Rocket 4.0 19:25:44 10° SSE 19:29:57 45° E 19:34:11 10° NNE
SPOT 3 Rocket 3.6 19:28:01 10° SSE 19:33:11 89° WSW 19:38:23 10° NNW
Landsat 7 3.9 19:28:57 10° SSE 19:33:43 82° ENE 19:38:31 10° NNW
Cosmos 1500 3.2 19:30:50 10° N 19:34:36 62° ENE 19:38:17 10° SSE
USA 307 3.1 19:32:11 10° WNW 19:36:24 60° SSW 19:40:37 10° SE
Cosmos 1538 Rocket 4.2 19:32:35 10° NNW 19:37:59 71° ENE 19:43:18 10° SE
Cosmos 773 Rocket 4.3 19:32:48 10° NNW 19:38:06 72° WSW 19:43:22 10° SSE
CARTOSAT-1 4.1 19:36:41 10° SE 19:40:47 44° ENE 19:44:54 10° N
ARIANE 5 R/B 3.0 19:38:25 10° SE 19:42:36 49° ENE 19:46:48 10° N
Meteor 1-26 Rocket 4.2 19:37:00 10° S 19:42:37 75° E 19:48:06 10° NNE
Cosmos 1933 Rocket 3.9 19:39:48 10° N 19:44:03 50° ENE 19:48:16 10° SSE
Cosmos 2082 Rocket 2.5 19:38:35 10° NNW 19:44:10 59° NE 19:49:43 10° SE
Cosmos 1666 Rocket 4.2 19:41:36 10° NNW 19:45:56 57° W 19:50:12 10° S
Cosmos 1709 Rocket 4.2 19:42:21 10° NNW 19:48:28 72° W 19:54:33 10° S
USA 308 3.3 19:45:52 10° WNW 19:50:03 52° SSW 19:54:09 10° SE
Spot 2 Rocket 3.6 19:45:12 10° SSE 19:50:11 65° ENE 19:55:12 10° N
BREEZE-M R/B 2.6 19:48:53 10° SW 19:51:08 29° SSE 19:53:26 10° ESE
Meteor 1-14 Rocket 4.4 19:47:35 10° NNW 19:53:31 83° WSW 19:59:15 10° S
Cosmos 2184 Rocket 4.3 19:47:29 10° N 19:53:39 56° ENE 19:59:42 10° SSE
COSMOS 2406 3.4 19:47:57 10° NW 19:53:39 75° WSW 19:59:18 10° SSE
Cosmos 1680 Rocket 4.4 19:48:52 10° NNW 19:53:55 40° NE 19:58:55 10° ESE
ERS-1 Rocket 3.4 19:50:18 10° SE 19:55:08 50° ENE 20:00:01 10° N
Cosmos 2074 Rocket 4.2 19:50:49 10° N 19:57:05 61° ENE 20:03:18 10° SSE
MetOp-B 4.4 19:55:27 10° S 20:00:47 70° WSW 20:06:10 10° NNW
Cosmos 1242 Rocket 3.7 19:57:45 10° SW 20:01:11 44° WNW 20:04:35 10° N
SJ 16-02 2.0 19:57:11 10° SSE 20:01:12 35° ESE 20:05:15 10° NE
Cosmos 1437 2.3 19:58:30 10° S 20:01:21 86° ESE 20:04:13 10° NNE
USA 245 2.0 20:02:46 12° S 20:04:47 74° WSW 20:07:08 10° NNW
BREEZE-M DEB (TANK) 3.7 19:55:58 10° WSW 20:07:41 69° SSE 20:10:55 10° E
SWARM C 4.5 20:04:34 10° N 20:07:54 88° E 20:11:13 10° S
SWARM A 4.2 20:04:40 10° N 20:08:01 89° W 20:11:20 10° S
Cosmos 1271 Rocket 3.5 20:05:27 10° SSE 20:09:05 37° E 20:12:48 10° NNE
Meteor 2-6 Rocket 4.3 20:03:49 10° S 20:09:08 59° E 20:14:37 10° NNE
CZ-2C R/B 3.6 20:04:48 10° NNE 20:09:18 79° ESE 20:13:51 10° SSW
deb Kosmos-1763 4.3 20:07:34 10° NNW 20:11:05 62° WSW 20:14:16 12° SSE
Cosmos 2278 Rocket 2.3 20:06:54 10° S 20:12:24 55° ESE 20:17:56 10° NE
CREW DRAGON DEMO-1 DEB 4.2 20:12:06 10° WSW 20:14:09 20° SSW 20:15:24 15° S
Cosmos 1844 Rocket 4.2 20:09:07 10° WSW 20:14:23 41° NW 20:19:42 10° NNE
Cosmos 1943 Rocket 3.9 20:12:58 11° ESE 20:15:14 14° E 20:17:59 10° ENE
Cosmos 1777 Rocket 3.9 20:11:20 10° SSW 20:16:31 78° ESE 20:21:45 10° NNE
Cosmos 1151 Rocket 3.8 20:12:17 10° SSW 20:16:35 56° WNW 20:20:57 10° N
Cosmos 2084 3.3 20:12:41 10° SW 20:16:51 80° SE 20:21:10 10° NE
Cosmos 1818 4.2 20:11:32 10° NW 20:16:55 52° NE 20:22:16 10° ESE
Cosmos 2315 Rocket 4.4 20:13:05 10° SSW 20:19:26 71° WNW 20:25:51 10° N
Cosmos 1782 3.9 20:19:16 10° SSW 20:23:06 45° WNW 20:26:57 10° N
Cosmos 2084 Rocket 3.9 20:22:16 10° NW 20:26:25 58° NE 20:30:17 13° ESE
ATLAS 5 CENTAUR R/B 4.4 20:22:36 10° WNW 20:26:28 19° WSW 20:30:44 10° SSW
SOZ 4.2 20:25:25 10° WSW 20:27:40 58° S 20:30:15 10° E
Gbstr 26 Del rocket 4.2 20:21:14 10° W 20:29:01 76° SSW 20:35:35 10° ESE
USA 305 4.0 20:25:52 10° W 20:29:40 32° SW 20:32:22 16° SSE
Cosmos 923 Rocket 4.0 20:25:29 10° NNW 20:30:47 85° ENE 20:35:01 16° SSE
Resurs 01 Rocket 3.6 20:28:06 10° SSW 20:31:49 25° W 20:35:32 10° NW
Cosmos 2228 Rocket 3.4 20:29:53 14° SSE 20:33:29 51° E 20:37:50 10° NNE
NOSS 3-4 (A) 4.1 20:27:40 10° NW 20:34:25 64° SW 20:40:44 16° SSE
NOSS 3-4 (C) 4.0 20:27:46 10° NW 20:34:32 64° SW 20:40:50 16° SSE
Cosmos 1812 3.1 20:33:37 10° SSW 20:37:27 63° WNW 20:41:19 10° N
Meteor 1-11 Rocket 3.9 20:31:54 10° NNW 20:37:55 90° W 20:42:59 15° SSE
Cosmos 1666 3.4 20:36:22 10° NNW 20:40:00 48° W 20:43:16 12° S
Terra 1.8 20:37:19 17° SSE 20:41:04 83° ENE 20:45:51 10° NNW
Cosmos 44 3.5 20:40:11 10° NW 20:45:41 89° NE 20:49:39 18° SE
Cosmos 1833 Rocket 3.9 20:40:49 10° NW 20:45:53 34° WSW 20:50:54 10° S
NOSS 3-3 (A) 4.2 20:40:26 10° SW 20:46:25 78° NW 20:53:23 10° NE
NOSS 3-3 (C) 4.2 20:40:33 10° SW 20:46:32 79° NW 20:53:29 10° NE
Cosmos 1340 Rocket 3.1 20:42:42 10° N 20:46:46 58° ENE 20:49:18 21° SSE
ATLAS 2AS CENTAUR R/B 2.8 20:40:33 10° NW 20:48:04 80° SW 20:53:31 18° SE
USA 306 4.3 20:45:24 10° W 20:48:56 26° SW 20:51:02 18° S
Cosmos 1515 Rocket 4.3 20:47:25 10° SSW 20:51:44 54° WNW 20:56:03 10° N
SPOT 5 3.4 20:47:38 14° S 20:52:01 64° WSW 20:57:20 10° NNW
ERBS 2.3 20:48:52 10° WNW 20:52:11 77° NNE 20:54:27 19° ESE
USA 215 3.6 20:46:23 10° E 20:52:52 68° N 20:59:21 10° WNW
Cosmos 1869 Rocket 3.6 20:48:54 10° NNW 20:53:15 80° W 20:56:20 19° S
Iridium 4 Rocket 4.0 20:47:45 10° S 20:53:35 74° W 20:59:31 10° N
Cosmos 1743 2.9 20:54:26 10° N 20:58:15 59° ENE 21:00:22 25° SSE
Cosmos 1536 3.0 20:59:32 10° NNW 21:03:35 70° W 21:06:10 21° S
Meteor 1-10 Rocket 4.5 21:00:27 10° SSW 21:06:01 71° WNW 21:11:45 10° N
Cosmos 1544 3.0 21:05:30 10° NNW 21:09:07 79° W 21:11:01 26° S
Cosmos 2112 Rocket 4.1 21:04:02 10° NNW 21:09:24 75° WSW 21:12:54 22° SSE
CZ-4C R/B 4.3 21:03:58 10° WNW 21:10:01 29° WSW 21:16:26 11° SSW
Cosmos 2297 4.1 21:08:50 19° S 21:12:32 45° ESE 21:17:55 10° NE
Cosmos 1707 Rocket 3.7 21:12:31 25° SSE 21:14:56 58° E 21:19:18 10° NNE
EP 1 4.1 21:13:48 11° SW 21:16:32 76° SE 21:19:07 10° NE
SL-8 Rocket 4.2 21:11:18 10° N 21:17:38 66° ENE 21:21:48 22° SSE
Cosmos 1975 3.7 21:15:16 10° N 21:19:01 37° ENE 21:20:51 24° ESE
ARIANE 5 R/B 4.5 21:15:49 10° SSW 21:19:19 24° W 21:22:51 10° NW
H-2A R/B 3.5 21:17:50 10° NNE 21:22:03 79° WNW 21:25:08 18° SSW
RESURS DK-1 3.6 21:18:47 10° NNW 21:22:39 35° NE 21:25:36 15° ESE
Cosmos 1238 Rocket 3.8 21:18:45 10° N 21:25:05 76° ENE 21:28:28 25° SSE
ALOS 2 3.8 21:24:31 19° ESE 21:27:01 33° ENE 21:30:58 10° N
Cosmos 2082 Rocket 3.4 21:23:05 10° NW 21:27:58 31° WSW 21:31:43 15° SSW
Cosmos 1937 Rocket 3.6 21:31:11 24° S 21:34:07 56° ESE 21:39:12 10° NNE
ERS-1 Rocket 4.5 21:30:08 12° SSW 21:34:11 29° W 21:38:34 10° NNW
Cosmos 1680 Rocket 4.3 21:31:05 10° NW 21:36:06 42° WSW 21:39:16 21° SSW
Cosmos 1461 4.0 21:35:29 28° SE 21:36:29 31° ESE 21:40:32 10° ENE
SJ 16-02 2.9 21:35:39 10° WSW 21:39:46 36° NW 21:43:55 10° NNE
Cosmos 1733 Rocket 3.1 21:37:43 10° NNW 21:42:04 75° W 21:44:08 30° S
Cosmos 864 Rocket 4.5 21:38:25 10° N 21:44:37 79° ENE 21:48:17 26° SSE
Cosmos 1959 Rocket 4.5 21:41:04 10° N 21:47:21 84° ENE 21:51:02 26° SSE
Cosmos 1515 3.6 21:47:28 34° SSW 21:49:02 88° W 21:52:51 10° N
Cosmos 858 Rocket 4.5 21:46:33 24° S 21:49:42 71° ESE 21:54:56 10° NNE
Cosmos 2278 Rocket 3.6 21:51:29 10° WSW 21:56:45 38° NW 22:02:02 10° NNE
Cosmos 1908 Rocket 3.7 21:53:25 10° N 21:57:55 66° ENE 21:59:50 33° SSE
Cosmos 1943 Rocket 2.1 21:54:26 23° SSW 21:57:59 69° ESE 22:03:35 10° NE
Cosmos 1818 4.1 21:55:18 10° NW 22:00:30 45° WSW 22:02:55 28° S
ATLAS CENTAUR R/B 3.3 22:04:06 13° E 22:04:06 13° E 22:05:10 10° E
Cosmos 2369 Rocket 2.6 22:01:38 29° SSE 22:04:01 45° ESE 22:09:25 10° NE
Cosmos 2084 Rocket 4.5 22:01:57 10° WNW 22:05:45 32° SW 22:06:47 28° SSW
BREEZE-M R/B 4.3 22:10:12 10° WSW 22:10:38 14° WSW 22:10:38 14° WSW
Cosmos 1898 Rocket 4.0 22:10:32 13° SW 22:15:14 60° WNW 22:20:33 10° NNE
Meteor 1-19 Rocket 4.1 22:12:13 26° SSW 22:15:20 84° WNW 22:20:47 10° NNE
SL-27 R/B 2.8 22:12:04 10° NNW 22:15:20 51° ENE 22:16:15 38° ESE
Cosmos 2181 Rocket 4.0 22:11:56 24° SSW 22:15:51 80° W 22:22:02 10° N
Gbstr 26 Del rocket 4.5 22:09:00 10° WNW 22:15:52 44° SW 22:18:36 29° SSE
Cosmos 1656 Rocket 4.3 22:14:20 29° SSE 22:16:12 37° ESE 22:21:15 10° NE
Cosmos 967 Rocket 4.4 22:11:12 11° SW 22:17:13 89° SE 22:23:34 10° NE
Cosmos 2366 rocket 4.2 22:11:48 10° NNW 22:17:54 64° W 22:21:27 26° SSW
Cosmos 1821 Rocket 4.2 22:11:45 10° N 22:18:10 69° ENE 22:21:51 27° SSE
Cosmos 1900 4.4 22:14:49 14° SW 22:19:18 81° NW 22:24:22 10° NE
Terra 4.0 22:16:26 10° SW 22:19:27 17° W 22:22:29 10° NW
NOSS 2-1 (E) 4.4 22:17:20 10° NW 22:21:44 60° NE 22:27:51 10° ESE
SeaSat 1 4.0 22:20:46 10° ENE 22:24:19 19° ESE 22:25:21 18° ESE
Okean 1 4.1 22:23:54 24° SW 22:25:54 44° WNW 22:29:46 10° N
MTI 4.1 22:24:10 10° NNE 22:27:05 45° E 22:27:08 45° ESE
ERBS 3.9 22:25:16 10° W 22:27:12 22° WSW 22:27:12 22° WSW
Cosmos 372 Rocket 3.9 22:25:47 29° SSW 22:28:27 86° ESE 22:33:35 10° NNE
Cosmos 44 Rocket 3.6 22:23:51 10° NW 22:29:07 71° NE 22:32:45 20° SE
Cosmos 1862 Rocket 4.1 22:27:33 25° SW 22:29:47 51° WNW 22:34:01 10° N
Cosmos 1782 Rocket 3.6 22:25:24 10° N 22:29:53 77° ENE 22:31:35 37° SSE
ISS -1.8 22:32:07 18° E 22:32:07 18° E 22:33:13 10° E
Cosmos 1703 Rocket 3.6 22:28:53 38° SSE 22:30:25 66° E 22:34:49 10° NNE
Cosmos 2263 4.5 22:30:06 31° S 22:32:40 54° ESE 22:38:20 10° NE
Cosmos 2150 Rocket 4.5 22:30:50 32° SSE 22:32:51 47° ESE 22:37:55 10° NE
Cosmos 2098 4.4 22:32:25 10° NNW 22:35:25 54° W 22:35:41 51° WSW
USA 215 3.2 22:29:16 10° ESE 22:35:51 82° SSW 22:42:26 10° WNW
Cosmos 494 Rocket 3.9 22:32:30 10° NNW 22:37:44 87° WSW 22:40:09 33° SSE
ATLAS 2AS CENTAUR R/B 4.1 22:32:30 10° WNW 22:37:57 23° WSW 22:40:56 18° SW
Meteor 2-4 Rocket 3.7 22:35:54 29° SSW 22:38:55 89° WNW 22:44:33 10° NNE
Okean 1-7 2.9 22:43:29 41° S 22:44:58 87° E 22:49:17 10° NNE
Cosmos 1607 4.2 22:43:51 29° S 22:47:07 57° SE 22:53:28 10° NE
Cosmos 2227 Rocket 4.2 22:43:15 10° NNW 22:48:00 27° NE 22:52:44 10° E
Cosmos 1356 Rocket 3.4 22:43:47 10° NNW 22:48:06 86° E 22:49:36 40° SSE
Meteor 1-13 Rocket 4.4 22:46:04 31° SSE 22:48:36 61° E 22:54:02 10° NNE
Cosmos 2297 Rocket 3.9 22:46:06 10° NNW 22:51:10 32° NE 22:56:12 10° ESE
SL-16 R/B 4.4 22:46:51 10° ESE 22:51:48 26° NE 22:56:46 10° N
Cosmos 1125 Rocket 3.8 22:50:20 33° SSE 22:52:21 53° ESE 22:57:26 10° NNE
USA 281 4.2 22:47:35 10° ESE 22:53:42 44° NE 22:59:51 10° NNW
Cosmos 1833 4.4 22:48:31 10° NW 22:54:10 58° WSW 22:56:44 32° S
Cosmos 1975 4.4 22:52:02 10° NNW 22:55:18 25° W 22:56:35 21° WSW
Cosmos 1867 3.6 22:54:36 32° SSW 22:57:03 63° SE 23:02:29 10° NE
DNEPR-1 R/B 4.3 22:54:21 10° WSW 22:59:54 63° NW 23:04:35 10° NE
RESURS DK-1 3.0 22:56:50 10° NW 23:00:44 39° WSW 23:01:28 35° SW
COSMOS 2455 3.6 22:55:40 10° NW 23:01:34 52° NE 23:07:26 10° ESE
ALOS 2 3.5 23:01:54 29° SW 23:03:19 36° W 23:07:24 10° NNW
Lacrosse 5 3.4 23:03:14 19° SE 23:03:22 19° SE 23:06:52 10° E
Nadezhda 3 Rocket 4.0 23:01:03 30° S 23:04:26 89° W 23:10:41 10° N
SAR-Lupe-2 3.9 23:03:03 10° N 23:06:36 59° WNW 23:07:39 40° SW
NOSS 2-1 (C) 4.0 23:03:38 10° NW 23:08:11 77° SW 23:12:36 20° SE
Cosmos 1400 Rocket 4.1 23:05:08 10° N 23:08:59 36° ENE 23:11:09 21° ESE
Meteor 1-12 Rocket 4.4 23:04:00 10° NNW 23:09:50 63° W 23:12:37 31° SSW
Cosmos 1378 3.1 23:13:26 48° SSW 23:14:22 76° W 23:18:06 10° N
NOSS 2-1 (D) 4.0 23:10:28 10° NW 23:15:02 71° SW 23:19:12 21° SSE
Cosmos 1461 3.6 23:11:46 16° WSW 23:15:23 59° NW 23:19:56 10° NE
USA 81 4.3 23:11:41 10° N 23:16:57 62° E 23:19:49 27° SSE
Cosmos 1726 4.0 23:14:41 10° N 23:17:49 25° ENE 23:19:59 15° ESE
COSMOS 2487 2.3 23:17:58 10° NNW 23:21:24 80° ENE 23:22:11 50° SE
Cosmos 1605 Rocket 4.1 23:17:39 10° N 23:23:56 76° ENE 23:27:50 25° SSE
Sich 1 Rocket 3.7 23:19:50 10° NNW 23:24:23 65° W 23:26:01 37° SSW
PSLV R/B 3.6 23:21:29 10° NNE 23:25:53 69° ESE 23:27:27 38° S
Cosmos 2344 4.4 23:19:51 10° NW 23:28:45 62° SW 23:39:42 14° SSE
Aureole 2 4.1 23:26:12 10° NNW 23:29:11 78° ENE 23:29:41 58° SE
Meteor 1-22 Rocket 4.4 23:27:22 10° NNW 23:33:22 81° ENE 23:37:10 24° SSE
Cosmos 2219 4.2 23:28:22 10° NNW 23:33:52 47° NE 23:39:22 10° ESE
Cosmos 1300 Rocket 3.8 23:31:29 10° NNW 23:35:49 56° W 23:37:19 36° SSW
Cosmos 1269 Rocket 4.0 23:32:09 10° NNW 23:37:26 69° WSW 23:40:01 30° S
Thor Agena Rocket 3.8 23:33:59 10° NNE 23:39:11 65° WNW 23:42:03 27° SW
Cosmos 2251 Rocket 4.4 23:34:26 10° NNW 23:39:32 46° NE 23:44:33 10° SE
ATLAS CENTAUR R/B 1.0 23:40:13 41° SW 23:41:27 89° NW 23:45:20 10° NE
Cosmos 1943 Rocket 3.7 23:37:12 10° WSW 23:42:13 32° NW 23:47:13 10° NNE
Okean 2 Rocket 3.2 23:38:18 10° NNW 23:42:39 60° W 23:44:14 36° SSW
Cosmos 2151 Rocket 3.6 23:39:11 10° NNW 23:43:43 74° W 23:45:32 35° S
Cosmos 1733 3.6 23:43:06 10° NNW 23:46:46 47° W 23:47:40 38° SW
Cosmos 2369 Rocket 3.1 23:43:22 13° WSW 23:48:08 44° NW 23:53:34 10° NNE
Cosmos 1707 4.3 23:50:46 19° SE 23:52:34 27° E 23:55:50 10° NNE
EO 1 Del DPAF 3.2 23:49:05 10° NNE 23:52:49 72° WNW 23:54:03 40° SW
